Location: Umburanas
(4.5000°S, 37.9667°W)
Time: 01:58:07
(UTC+00:00)

SeaSat 1 - Pass Details

Date: 19 November 2019
Orbit: 745 x 747 km, 108.0° (Epoch: 15 December)

Event Time Altitude Azimuth Distance (km) Brightness Sun altitude
Rises 21:44:54 0° 152° (SSE) 3,186 5.7 -18.9°
Reaches altitude 10° 21:47:12 10° 148° (SSE) 2,260 4.8 -19.4°
Maximum altitude 21:52:02 59° 69° (ENE) 857 2.4 -20.6°
Drops below altitude 10° 21:56:51 10° 349° (N) 2,248 4.8 -21.7°
Sets 21:59:08 0° 346° (NNW) 3,168 5.6 -22.2°
